GW3284 Weather Reports


time (UTC)temp
F
wind
direction
speed
knots
gust
knots
rain 1hr
in
rain 24hr
in
rain mn
in
humidity
%
barometer
mb
20260906123102 74 26 0.0 1.7 0.00 0.00 0.00 81 1013.8
20260906121600 74 0 0.0 1.7 0.00 0.00 0.00 81 1013.8
20260906120119 75 0 0.0 1.7 0.00 0.00 0.00 80 1013.5
20260906114622 75 96 0.0 0.9 0.00 0.00 0.00 80 1013.4
20260906113057 75 125 0.0 1.7 0.00 0.00 0.00 80 1013.2
20260906111603 75 128 0.9 1.7 0.00 0.00 0.00 79 1012.9
20260906110053 75 128 0.9 1.7 0.00 0.00 0.00 78 1012.9
20260906104553 76 99 0.0 3.5 0.00 0.00 0.00 78 1012.7
20260906103058 76 121 0.9 5.2 0.00 0.00 0.00 77 1012.6
20260906101557 76 124 0.9 6.1 0.00 0.00 0.00 75 1012.7
20260906100059 77 129 0.9 3.5 0.00 0.00 0.00 73 1012.7
20260906094603 77 143 0.9 5.2 0.00 0.00 0.00 70 1012.8
20260906093100 76 82 0.9 1.7 0.00 0.00 0.00 73 1012.6
20260906091601 76 0 0.0 0.0 0.00 0.00 0.00 74 1012.5
20260906090057 76 103 0.0 0.9 0.00 0.00 0.00 74 1012.5
20260906084603 76 0 0.0 1.7 0.00 0.00 0.00 75 1012.4
20260906083059 75 129 0.0 1.7 0.00 0.00 0.00 76 1012.4
20260906081558 75 45 0.9 3.5 0.00 0.00 0.00 78 1012.7
20260906080056 75 128 0.0 1.7 0.00 0.00 0.00 77 1012.8
20260906074602 75 273 0.0 1.7 0.00 0.00 0.00 77 1012.6
20260906073059 75 277 0.0 1.7 0.00 0.00 0.00 76 1012.7
20260906071556 76 0 0.0 1.7 0.00 0.00 0.00 77 1012.8
20260906070053 76 256 0.0 2.6 0.00 0.00 0.00 78 1013.2
20260906064557 76 0 0.0 1.7 0.00 0.00 0.00 77 1012.9
20260906063050 76 321 0.0 1.7 0.00 0.00 0.00 77 1013.0
20260906061553 77 300 0.0 1.7 0.00 0.00 0.00 76 1012.9
20260906060058 77 292 0.0 1.7 0.00 0.00 0.00 75 1013.2
20260906054607 78 284 0.9 2.6 0.00 0.00 0.00 74 1013.6
20260906053053 79 284 0.9 2.6 0.00 0.00 0.00 72 1013.8
20260906051557 80 331 0.0 1.7 0.00 0.00 0.00 69 1013.5
20260906050105 80 301 0.9 1.7 0.00 0.00 0.00 69 1013.5
20260906044553 81 275 0.0 1.7 0.00 0.00 0.00 68 1013.4
20260906043058 82 280 0.9 1.7 0.00 0.00 0.00 67 1013.4
20260906041556 83 210 0.0 1.7 0.00 0.00 0.00 63 1013.3
20260906034555 83 39 0.0 1.7 0.00 0.00 0.00 64 1013.2
20260906033114 83 0 0.0 1.7 0.00 0.00 0.00 64 1013.1
20260906031609 84 0 0.0 1.7 0.00 0.00 0.00 64 1013.1
20260906030051 85 0 0.0 1.7 0.00 0.00 0.00 61 1013.0
20260906024606 85 170 0.0 1.7 0.00 0.00 0.00 60 1012.7
20260906023100 84 189 0.0 0.9 0.00 0.00 0.00 61 1012.3
20260906021556 84 0 0.0 1.7 0.00 0.00 0.00 62 1012.1
20260906020101 85 0 0.0 1.7 0.00 0.00 0.00 62 1011.7
20260906014557 86 248 0.0 1.7 0.00 0.00 0.00 61 1011.8
20260906013059 87 298 0.0 1.7 0.00 0.00 0.00 60 1011.8
20260906011602 88 0 0.0 3.5 0.00 0.00 0.00 59 1011.7
20260906010100 90 283 0.9 5.2 0.00 0.00 0.00 55 1012.0
20260906004554 91 0 0.0 0.0 0.00 0.00 0.00 54 1011.8
20260906003102 91 0 0.0 1.7 0.00 0.00 0.00 54 1011.9
20260906001558 91 0 0.0 1.7 0.00 0.00 0.00 53 1011.7
20260906000107 91 341 0.0 1.7 0.00 0.00 0.00 53 1011.6
20260905234559 92 331 0.9 0.9 0.00 0.00 0.00 51 1011.8
20260905233059 93 302 0.9 1.7 0.00 0.00 0.00 49 1011.9
20260905231558 94 310 0.9 2.6 0.00 0.00 0.00 48 1011.7
20260905230052 94 321 0.0 1.7 0.00 0.00 0.00 48 1011.8
20260905224558 95 275 0.0 2.6 0.00 0.02 0.00 47 1011.6
20260905223058 95 342 0.9 1.7 0.00 0.02 0.00 47 1011.7
20260905221554 96 292 1.7 2.6 0.00 0.02 0.00 46 1011.6
20260905220100 96 303 0.9 2.6 0.00 0.02 0.00 46 1011.5
20260905214557 97 330 1.7 3.5 0.00 0.02 0.00 44 1011.8
20260905213100 97 280 1.7 2.6 0.00 0.02 0.00 42 1011.8
20260905211610 97 265 1.7 3.5 0.00 0.02 0.00 43 1011.7
20260905210104 97 275 0.9 3.5 0.00 0.02 0.00 42 1011.9
20260905204603 97 322 1.7 3.5 0.00 0.02 0.00 43 1012.1
20260905203101 97 315 1.7 5.2 0.00 0.02 0.00 44 1012.3
20260905201556 97 284 1.7 2.6 0.00 0.02 0.00 44 1012.4
20260905200118 96 5 0.9 3.5 0.00 0.02 0.00 45 1012.9
20260905194600 96 248 2.6 6.1 0.00 0.02 0.00 46 1013.1
20260905193102 96 174 0.9 1.7 0.00 0.02 0.00 44 1013.1
20260905191559 95 352 0.9 5.2 0.00 0.02 0.00 46 1013.4
20260905190058 95 241 0.9 3.5 0.00 0.02 0.00 47 1013.5
20260905184556 94 302 0.9 3.5 0.00 0.02 0.00 50 1013.8
20260905183100 95 275 0.0 3.5 0.00 0.02 0.00 50 1013.9
20260905181558 94 256 1.7 5.2 0.00 0.02 0.00 48 1014.3
20260905180100 94 219 1.7 3.5 0.00 0.02 0.00 50 1014.4
20260905174555 93 197 0.0 1.7 0.00 0.02 0.00 51 1014.5
20260905173103 93 298 1.7 5.2 0.00 0.02 0.00 52 1014.4
20260905171556 92 271 0.9 2.6 0.00 0.02 0.00 54 1014.6
20260905170116 92 275 0.9 1.7 0.00 0.02 0.00 55 1014.7
20260905164558 91 278 0.9 1.7 0.00 0.02 0.00 56 1015.1
20260905163058 90 271 0.0 2.6 0.00 0.02 0.00 59 1015.2
20260905161601 88 207 0.0 1.7 0.00 0.02 0.00 61 1015.4
20260905160059 87 277 0.9 1.7 0.00 0.02 0.00 64 1015.6
20260905154603 85 315 0.0 1.7 0.00 0.02 0.00 70 1015.6
20260905153056 83 311 0.0 1.7 0.00 0.02 0.00 73 1015.6
20260905151619 82 0 0.0 0.0 0.00 0.02 0.00 75 1015.9
20260905150105 82 232 0.0 1.7 0.00 0.02 0.00 74 1015.9
20260905144600 81 0 0.0 1.7 0.00 0.02 0.00 77 1015.9
20260905143056 81 113 0.0 1.7 0.00 0.02 0.00 78 1016.0
20260905141558 81 0 0.0 0.0 0.00 0.02 0.00 77 1015.9
20260905140059 80 0 0.0 0.0 0.00 0.02 0.00 75 1015.7
20260905134600 80 0 0.0 0.0 0.00 0.02 0.00 78 1015.8
20260905133058 79 0 0.0 0.0 0.00 0.02 0.00 80 1015.8
20260905131606 79 0 0.0 0.0 0.00 0.02 0.00 79 1015.9
20260905130055 80 0 0.0 0.0 0.00 0.02 0.00 77 1015.9
20260905124601 79 0 0.0 1.7 0.00 0.02 0.00 72 1016.0